• In United Kingdom
  • List of Countries
  • For 7 days
  • Water Temperature
  • Satellite Maps
  • Weather Map
  • Weather Widgets
  • user-avatar
    Login

    Hourly Weather Makarov

    Today, 21 August, Tuesday

    Time Temperature Precipitation Wind Pressure Humidity
    00:00 +21°C° 0 mm 2 mps 748 mmHg 71%
    01:00 +21°C° 0 mm 2 mps 747 mmHg 72%
    02:00 +20°C° 0 mm 2 mps 747 mmHg 72%
    03:00 +20°C° 0 mm 2 mps 747 mmHg 73%
    04:00 +20°C° 0 mm 2 mps 747 mmHg 74%
    05:00 +20°C° 0 mm 2 mps 747 mmHg 75%
    06:00 +21°C° 0.2 mm 3 mps 747 mmHg 73%
    07:00 +22°C° 0.2 mm 3 mps 747 mmHg 70%
    08:00 +25°C° 0.2 mm 3 mps 747 mmHg 68%
    09:00 +26°C° 0.5 mm 4 mps 747 mmHg 65%
    10:00 +27°C° 0.5 mm 4 mps 747 mmHg 62%
    11:00 +28°C° 0.5 mm 4 mps 747 mmHg 59%
    12:00 +29°C° 0.3 mm 5 mps 747 mmHg 57%
    13:00 +29°C° 0.3 mm 5 mps 747 mmHg 55%
    14:00 +29°C° 0.3 mm 5 mps 747 mmHg 53%
    15:00 +28°C° 0.1 mm 4 mps 747 mmHg 55%
    16:00 +28°C° 0.1 mm 4 mps 747 mmHg 56%
    17:00 +27°C° 0.1 mm 4 mps 747 mmHg 58%
    18:00 +25°C° 0 mm 4 mps 748 mmHg 62%
    19:00 +22°C° 0 mm 3 mps 748 mmHg 66%
    20:00 +20°C° 0 mm 3 mps 748 mmHg 71%
    21:00 +19°C° 0 mm 3 mps 749 mmHg 73%
    22:00 +18°C° 0 mm 3 mps 749 mmHg 76%
    23:00 +18°C° 0 mm 2 mps 749 mmHg 79%

    Tomorrow, 22 August, Wednesday

    Time Temperature Precipitation Wind Pressure Humidity
    00:00 +17°C° 0 mm 2 mps 750 mmHg 81%
    01:00 +16°C° 0 mm 2 mps 750 mmHg 83%
    02:00 +16°C° 0 mm 2 mps 750 mmHg 86%
    03:00 +15°C° 0 mm 2 mps 751 mmHg 87%
    04:00 +15°C° 0 mm 2 mps 751 mmHg 89%
    05:00 +14°C° 0 mm 2 mps 751 mmHg 91%
    06:00 +16°C° 0 mm 2 mps 751 mmHg 84%
    07:00 +17°C° 0 mm 2 mps 752 mmHg 76%
    08:00 +18°C° 0 mm 3 mps 752 mmHg 69%
    09:00 +20°C° 0 mm 3 mps 752 mmHg 62%
    10:00 +21°C° 0 mm 3 mps 753 mmHg 55%
    11:00 +22°C° 0 mm 3 mps 753 mmHg 47%
    12:00 +24°C° 0 mm 3 mps 753 mmHg 45%
    13:00 +24°C° 0 mm 3 mps 753 mmHg 42%
    14:00 +25°C° 0 mm 3 mps 753 mmHg 40%
    15:00 +25°C° 0 mm 3 mps 753 mmHg 41%
    16:00 +24°C° 0 mm 3 mps 753 mmHg 42%
    17:00 +24°C° 0 mm 3 mps 753 mmHg 44%
    18:00 +21°C° 0 mm 3 mps 753 mmHg 49%
    19:00 +19°C° 0 mm 2 mps 753 mmHg 54%
    20:00 +17°C° 0 mm 2 mps 753 mmHg 59%
    21:00 +16°C° 0 mm 2 mps 754 mmHg 62%
    22:00 +15°C° 0 mm 2 mps 754 mmHg 64%
    23:00 +14°C° 0 mm 2 mps 754 mmHg 66%

    Day after tomorrow, 23 August, Thursday

    Time Temperature Precipitation Wind Pressure Humidity
    00:00 +14°C° 0 mm 2 mps 754 mmHg 68%
    01:00 +13°C° 0 mm 2 mps 754 mmHg 70%
    02:00 +13°C° 0 mm 2 mps 754 mmHg 72%
    03:00 +13°C° 0 mm 2 mps 754 mmHg 74%
    04:00 +12°C° 0 mm 2 mps 754 mmHg 76%
    05:00 +12°C° 0 mm 1 mps 754 mmHg 78%
    06:00 +14°C° 0 mm 2 mps 754 mmHg 72%
    07:00 +15°C° 0 mm 2 mps 754 mmHg 67%
    08:00 +17°C° 0 mm 2 mps 755 mmHg 61%
    09:00 +19°C° 0 mm 2 mps 754 mmHg 55%
    10:00 +20°C° 0 mm 2 mps 754 mmHg 49%
    11:00 +23°C° 0 mm 2 mps 754 mmHg 43%
    12:00 +24°C° 0 mm 2 mps 754 mmHg 40%
    13:00 +24°C° 0 mm 2 mps 754 mmHg 38%
    14:00 +25°C° 0 mm 2 mps 753 mmHg 35%
    15:00 +25°C° 0 mm 2 mps 753 mmHg 37%
    16:00 +25°C° 0 mm 2 mps 753 mmHg 39%
    17:00 +24°C° 0 mm 2 mps 752 mmHg 41%
    18:00 +21°C° 0 mm 2 mps 752 mmHg 46%
    19:00 +19°C° 0 mm 2 mps 752 mmHg 52%
    20:00 +17°C° 0 mm 2 mps 752 mmHg 57%
    21:00 +17°C° 0 mm 2 mps 752 mmHg 59%
    22:00 +16°C° 0 mm 2 mps 752 mmHg 60%
    23:00 +15°C° 0 mm 2 mps 752 mmHg 62%

    24 August, Friday

    Time Temperature Precipitation Wind Pressure Humidity
    00:00 +15°C° 0 mm 2 mps 752 mmHg 63%
    01:00 +15°C° 0 mm 2 mps 752 mmHg 64%
    02:00 +14°C° 0 mm 2 mps 752 mmHg 65%
    03:00 +14°C° 0 mm 2 mps 752 mmHg 66%
    04:00 +14°C° 0 mm 2 mps 751 mmHg 67%
    05:00 +13°C° 0 mm 2 mps 751 mmHg 69%
    06:00 +15°C° 0 mm 2 mps 751 mmHg 64%
    07:00 +17°C° 0 mm 3 mps 751 mmHg 60%
    08:00 +18°C° 0 mm 3 mps 751 mmHg 56%
    09:00 +21°C° 0 mm 3 mps 751 mmHg 50%
    10:00 +23°C° 0 mm 4 mps 751 mmHg 45%
    11:00 +26°C° 0 mm 4 mps 751 mmHg 39%
    12:00 +26°C° 0 mm 4 mps 750 mmHg 38%
    13:00 +27°C° 0 mm 4 mps 750 mmHg 36%
    14:00 +28°C° 0 mm 4 mps 750 mmHg 35%
    15:00 +27°C° 0 mm 4 mps 749 mmHg 37%
    16:00 +27°C° 0 mm 3 mps 749 mmHg 40%
    17:00 +26°C° 0 mm 3 mps 748 mmHg 42%
    18:00 +24°C° 0 mm 3 mps 748 mmHg 46%
    19:00 +21°C° 0 mm 3 mps 748 mmHg 51%
    20:00 +19°C° 0 mm 3 mps 748 mmHg 55%
    21:00 +18°C° 0 mm 3 mps 748 mmHg 55%
    22:00 +18°C° 0 mm 3 mps 748 mmHg 55%
    23:00 +17°C° 0 mm 3 mps 748 mmHg 55%

    25 August, Saturday

    Time Temperature Precipitation Wind Pressure Humidity
    00:00 +17°C° 0 mm 3 mps 748 mmHg 56%
    01:00 +16°C° 0 mm 3 mps 748 mmHg 56%
    02:00 +16°C° 0 mm 3 mps 747 mmHg 57%
    03:00 +14°C° 0 mm 3 mps 747 mmHg 58%
    04:00 +14°C° 0 mm 3 mps 747 mmHg 59%
    05:00 +14°C° 0 mm 3 mps 747 mmHg 59%
    06:00 +16°C° 0 mm 3 mps 747 mmHg 56%
    07:00 +18°C° 0 mm 3 mps 747 mmHg 53%
    08:00 +20°C° 0 mm 4 mps 747 mmHg 50%
    09:00 +22°C° 0 mm 4 mps 747 mmHg 47%
    10:00 +25°C° 0 mm 4 mps 747 mmHg 43%
    11:00 +27°C° 0 mm 4 mps 747 mmHg 39%
    12:00 +28°C° 0 mm 4 mps 747 mmHg 38%
    13:00 +28°C° 0 mm 4 mps 746 mmHg 36%
    14:00 +29°C° 0 mm 5 mps 746 mmHg 35%
    15:00 +29°C° 0 mm 4 mps 746 mmHg 37%
    16:00 +29°C° 0 mm 4 mps 746 mmHg 39%
    17:00 +28°C° 0 mm 3 mps 746 mmHg 42%
    18:00 +26°C° 0 mm 3 mps 746 mmHg 46%
    19:00 +24°C° 0 mm 3 mps 746 mmHg 51%
    20:00 +21°C° 0 mm 3 mps 746 mmHg 55%
    21:00 +20°C° 0 mm 3 mps 746 mmHg 53%
    22:00 +20°C° 0 mm 3 mps 746 mmHg 52%
    23:00 +19°C° 0 mm 3 mps 746 mmHg 50%

    26 August, Sunday

    Time Temperature Precipitation Wind Pressure Humidity
    00:00 +18°C° 0 mm 3 mps 746 mmHg 50%
    01:00 +18°C° 0 mm 3 mps 746 mmHg 50%
    02:00 +17°C° 0 mm 3 mps 745 mmHg 51%
    03:00 +17°C° 0 mm 3 mps 745 mmHg 52%
    04:00 +17°C° 0 mm 3 mps 745 mmHg 53%
    05:00 +16°C° 0 mm 3 mps 745 mmHg 54%
    06:00 +18°C° 0 mm 3 mps 745 mmHg 52%
    07:00 +19°C° 0 mm 3 mps 746 mmHg 50%
    08:00 +21°C° 0 mm 3 mps 746 mmHg 48%
    09:00 +24°C° 0 mm 3 mps 746 mmHg 45%
    10:00 +26°C° 0 mm 4 mps 746 mmHg 41%
    11:00 +28°C° 0 mm 4 mps 745 mmHg 37%
    12:00 +29°C° 0 mm 4 mps 745 mmHg 35%
    13:00 +29°C° 0 mm 4 mps 745 mmHg 32%
    14:00 +30°C° 0 mm 5 mps 745 mmHg 30%
    15:00 +29°C° 0 mm 4 mps 745 mmHg 32%
    16:00 +29°C° 0 mm 4 mps 745 mmHg 35%
    17:00 +28°C° 0 mm 4 mps 745 mmHg 37%
    18:00 +26°C° 0 mm 3 mps 745 mmHg 43%
    19:00 +24°C° 0 mm 3 mps 745 mmHg 48%
    20:00 +21°C° 0 mm 2 mps 745 mmHg 54%
    21:00 +20°C° 0 mm 3 mps 745 mmHg 56%
    22:00 +19°C° 0 mm 3 mps 745 mmHg 59%
    23:00 +19°C° 0 mm 3 mps 744 mmHg 62%
    Show more